Lapse_Rate
4.9 6.5 6.5 6.5 6.5 6.5 6.5 6.5 6.5 6.6 6.5 6.5 6.5 6.5 6.5 5.4 5.3 5.6 5.2 5.5 5.2 4.1 4.7 5.1 5.8 5.5 5.4 5.1 4.8 4.6 4.2 3.7 3.7 3.4 3.8 2.7 3.1 3.1 3.1 3.8 5.6 5.2 5.8 4.4
6.5 6.5 6.5 6.5 6.5 6.5 6.5 6.5 6.5 6.5 6.5 6.5 6.5 6.5 6.5 6.4 6.1 4.9 5.4 6.0 5.2 4.3 3.6 4.8 5.0 5.7 5.0 4.6 4.6 4.7 4.1 3.3 4.4 4.7 4.1 2.7 3.0 3.0 4.2 4.1 4.5 5.0 5.4 4.3
6.5 6.5 6.4 6.5 6.5 6.5 6.5 6.5 6.5 6.5 6.5 6.5 6.5 6.5 6.5 6.4 5.4 4.8 6.0 5.4 5.5 4.9 4.4 4.8 4.7 5.4 4.8 4.1 4.3 4.4 4.0 4.0 4.4 3.0 2.8 2.7 3.1 3.2 4.0 4.1 4.3 4.1 5.0 4.5
6.5 6.2 6.5 6.5 6.5 6.5 6.5 6.5 6.5 6.5 6.5 6.5 6.5 6.5 6.5 6.5 6.5 6.4 5.7 6.1 5.8 5.4 5.3 5.4 4.6 4.3 4.0 3.6 3.9 4.2 3.9 3.5 3.2 2.0 3.7 3.3 2.8 3.2 3.1 3.8 3.9 3.4 5.1 4.2
6.4 6.5 6.5 6.5 6.5 6.5 6.5 6.5 6.5 6.5 6.5 6.5 6.5 6.5 6.5 6.5 6.5 6.5 5.7 6.0 5.9 5.6 4.9 5.4 4.3 3.8 4.0 4.0 3.6 3.3 3.2 3.4 3.1 3.3 3.1 3.6 3.0 3.3 2.7 3.8 4.4 3.8 4.1 4.6
6.5 5.3 6.4 6.5 6.5 6.5 6.5 6.5 6.5 6.5 6.5 6.5 6.5 6.5 6.5 6.5 6.5 6.5 5.9 4.7 6.0 6.0 5.0 5.1 5.3 4.5 4.2 4.3 3.9 2.8 2.1 2.4 2.8 3.3 2.5 3.3 3.9 3.1 3.4 3.3 3.3 4.6 3.5 4.1
6.5 6.5 6.5 6.4 6.5 6.5 6.5 6.4 6.5 6.5 6.5 6.5 6.5 6.5 6.4 6.5 6.5 6.5 6.4 6.0 5.9 6.0 4.9 5.2 4.9 4.7 3.7 3.6 3.3 2.8 2.2 2.2 2.5 2.9 3.0 3.0 3.4 3.1 3.4 3.3 3.5 3.1 3.7 3.8
6.5 6.5 6.5 6.5 6.5 6.5 6.5 6.5 6.5 6.5 6.5 6.5 6.5 6.6 6.5 6.5 6.4 6.4 6.6 5.5 5.7 5.1 2.6 4.4 5.2 4.8 3.1 3.7 3.0 3.0 2.2 2.4 2.5 2.7 2.8 2.7 2.8 3.6 3.9 3.7 3.4 3.9 4.5 4.6
6.5 6.5 6.5 6.5 6.5 6.5 6.5 6.5 6.5 6.5 6.5 6.5 6.5 6.5 6.5 6.5 6.5 6.3 6.5 5.8 4.8 5.3 3.2 1.7 5.3 3.4 1.8 4.0 3.4 2.9 2.2 2.3 2.7 2.7 2.7 2.5 2.3 2.7 3.1 2.9 3.7 3.8 3.4 4.5
6.5 6.5 6.5 6.5 6.4 6.4 6.5 6.5 6.5 6.5 6.5 6.5 6.5 6.5 6.5 6.5 6.5 6.5 6.4 4.8 3.3 3.4 7.0 5.5 5.1 3.2 3.6 4.3 5.5 3.8 3.7 3.0 2.8 3.4 2.9 2.8 2.6 2.6 2.8 3.0 3.4 3.6 3.9 3.9
6.5 6.5 6.5 6.5 6.5 6.5 6.5 6.5 6.5 6.5 6.5 6.5 6.5 6.5 6.5 6.5 6.5 6.5 6.2 3.7 4.0 5.9 6.6 5.9 3.4 3.8 1.0 3.4 4.9 3.2 2.3 3.0 3.5 2.9 3.6 4.6 3.1 3.2 2.9 3.1 3.5 3.7 4.0 3.6
6.5 6.5 6.5 6.5 6.5 6.5 6.6 6.5 6.5 6.5 6.5 6.5 6.5 6.5 6.5 6.5 6.3 6.1 5.7 5.9 4.9 4.8 5.9 6.0 4.4 2.6 3.5 2.2 1.4 3.0 -0.4 2.2 2.0 1.3 1.4 3.7 3.6 3.7 3.4 3.6 3.2 3.6 3.8 3.8
6.5 6.5 6.5 6.5 6.5 6.5 6.5 6.5 6.5 6.5 6.5 6.5 6.5 6.5 6.5 6.1 6.4 6.1 5.5 4.1 3.4 4.1 4.7 5.2 4.3 3.1 2.8 3.1 3.3 2.5 1.1 1.7 1.0 -0.2 -0.5 2.7 5.2 4.2 4.0 4.2 4.0 3.1 3.0 3.9
3.9 6.5 6.5 6.5 6.5 6.5 6.5 6.5 6.5 6.5 6.5 6.5 6.5 6.5 6.4 6.5 6.5 6.1 4.8 4.0 4.3 4.7 4.1 4.1 3.7 3.3 3.6 3.9 3.9 4.4 3.4 2.9 1.9 0.9 0.1 2.2 4.5 4.1 3.2 3.0 3.3 4.1 3.3 3.4
6.5 6.5 6.5 6.5 6.5 6.5 6.5 6.5 6.6 6.5 6.5 6.5 6.5 6.5 6.5 6.5 6.5 5.7 4.5 4.7 5.0 3.9 3.9 4.0 3.7 3.5 3.8 3.7 4.0 4.3 4.2 4.4 4.1 4.2 3.2 1.1 3.9 3.3 3.7 3.3 3.0 2.9 4.0 3.8
6.4 6.5 6.5 6.5 6.5 6.5 6.5 6.5 6.5 6.5 6.5 6.5 6.5 6.5 6.5 5.6 4.5 5.0 5.2 5.1 4.9 5.0 5.1 4.6 4.7 4.7 4.3 4.4 4.5 3.8 4.3 4.1 3.6 3.9 4.6 3.4 3.4 4.2 4.2 4.1 3.5 2.9 2.8 3.6
6.5 6.5 6.5 6.5 6.5 6.5 6.5 6.5 6.5 6.5 6.5 6.5 6.5 6.5 6.1 6.4 5.8 4.8 4.7 5.0 5.3 5.8 5.9 5.1 4.7 4.3 3.8 3.8 4.1 4.2 3.5 3.4 4.1 4.3 4.2 3.7 3.4 2.8 2.7 3.2 3.8 3.5 3.5 2.6
6.6 6.5 6.5 6.5 6.5 6.5 6.5 6.5 6.5 6.6 6.5 6.5 6.5 6.5 6.2 6.1 5.8 4.7 5.1 5.2 5.3 5.9 5.8 4.9 4.3 3.9 4.0 4.2 3.7 3.3 3.7 3.2 2.9 3.1 3.9 4.2 3.6 3.2 2.5 2.4 2.8 3.0 4.2 3.8
6.0 6.5 6.5 6.5 6.5 6.5 6.6 6.5 6.5 6.5 6.5 6.5 6.5 6.4 6.0 5.3 4.8 5.3 5.5 5.7 5.4 5.1 5.0 4.7 4.3 4.4 4.0 3.5 3.7 3.4 3.7 3.5 3.4 3.3 3.2 3.9 4.0 3.7 3.1 3.0 2.7 2.6 3.3 2.9
6.5 6.5 6.5 6.5 6.5 6.5 6.5 6.5 5.4 6.1 6.5 6.3 5.9 6.0 5.8 4.4 6.5 6.5 4.5 5.0 5.3 5.1 5.0 4.8 4.7 4.8 4.3 4.1 3.8 3.8 3.7 3.5 3.6 3.6 3.0 3.4 3.7 4.1 3.7 2.9 2.3 2.1 2.5 2.9
6.5 6.5 6.5 6.5 6.5 6.5 6.5 6.2 5.4 6.5 6.5 6.2 5.1 5.3 5.1 6.2 4.0 4.1 4.1 4.3 4.4 4.5 4.9 4.7 4.4 4.0 4.2 4.1 4.1 4.0 4.1 3.9 4.1 3.8 3.6 3.3 3.6 3.7 3.8 3.3 1.6 1.5 2.0 2.6
6.5 6.5 6.5 6.5 6.5 6.5 6.1 6.2 6.5 5.6 5.7 5.0 5.5 6.1 6.3 5.5 5.5 5.0 4.7 4.6 4.8 4.6 4.6 5.0 4.2 4.3 4.3 4.1 3.8 4.0 3.8 4.4 4.3 4.2 4.3 4.2 3.4 3.6 4.2 3.3 2.9 1.6 1.4 1.7
6.5 6.5 6.5 6.5 6.5 4.9 5.2 5.1 5.0 3.9 4.5 5.7 5.6 5.6 5.9 5.3 5.0 4.7 4.2 4.0 4.2 4.4 4.1 4.6 5.4 5.3 4.0 3.9 3.9 3.8 4.9 4.0 4.1 4.3 6.1 6.1 4.3 4.6 3.6 3.7 3.4 2.7 1.4 1.5
6.4 5.3 6.5 6.5 6.3 5.8 4.5 4.9 5.5 6.2 6.5 6.3 5.8 5.2 5.2 4.4 4.2 3.9 3.7 3.6 4.0 4.4 4.6 4.8 4.1 3.8 4.0 3.9 4.2 4.2 4.8 5.0 4.6 5.4 5.4 5.8 5.9 5.8 4.5 3.1 3.3 4.1 4.3 4.0
5.5 5.9 6.5 6.5 5.9 5.7 5.0 5.5 6.4 5.9 5.7 5.6 5.2 5.1 5.2 4.7 4.4 4.3 4.1 4.0 4.2 4.4 4.8 4.6 4.1 4.2 4.8 5.2 4.5 5.1 5.2 4.7 4.9 5.4 5.4 5.8 5.9 5.3 4.9 3.3 3.2 3.5 3.8 3.5
4.6 6.5 6.5 6.5 4.4 4.3 4.3 4.8 5.5 5.3 5.3 5.0 5.2 5.3 5.2 5.7 5.0 4.9 5.2 6.0 5.7 5.0 4.9 4.0 4.1 4.3 4.8 4.5 5.0 5.4 5.1 4.5 5.2 5.7 5.8 5.5 5.7 5.8 3.6 3.7 3.5 -0.0 -0.5 -1.4
Wind_Speed
3 2 8 13 8 8 7 2 2 3 7 6 7 6 8 12 8 11 12 15 14 15 17 18 16 15 16 15 14 15 14 10 9 5 7 4 4 3 4 7 11 14 14 16
5 6 15 6 8 8 1 2 4 5 4 3 3 7 9 11 15 12 16 16 16 10 14 16 15 15 16 18 17 15 13 11 11 9 6 3 4 3 3 6 11 11 12 15
6 13 7 7 8 2 2 2 6 6 3 3 1 9 7 6 10 8 17 20 16 18 17 16 17 18 17 17 17 16 15 15 13 8 4 3 3 3 1 2 3 6 14 13
7 12 9 8 1 4 2 4 8 5 3 2 4 5 7 4 7 13 12 15 16 16 14 15 16 17 18 17 16 15 14 13 10 8 8 6 5 4 4 4 3 4 13 12
9 8 7 3 5 5 8 6 3 2 2 2 2 4 7 3 3 5 9 15 17 18 18 18 16 19 17 16 15 13 13 13 10 11 9 8 5 4 3 3 6 6 5 12
9 6 3 7 3 4 5 3 8 6 4 3 1 5 5 3 5 4 4 14 19 18 17 18 14 14 14 14 14 15 15 13 11 12 9 10 10 6 4 4 5 6 4 5
6 8 4 2 1 6 4 7 4 4 5 5 1 4 6 5 3 17 22 22 8 11 17 14 11 10 13 15 14 13 14 14 13 14 12 11 10 8 8 7 6 6 4 3
2 7 7 4 7 7 4 8 5 2 3 5 4 4 8 14 15 15 20 22 27 24 16 13 1 6 10 14 16 17 15 14 14 14 13 10 10 7 7 8 5 6 7 6
3 7 6 3 4 8 2 0 6 4 1 3 2 4 2 12 14 13 14 16 23 21 23 25 25 6 7 9 14 16 16 14 15 16 12 12 11 11 10 9 7 6 5 6
3 3 3 6 3 5 1 4 3 4 1 2 3 1 2 5 6 8 11 12 17 13 18 11 11 10 9 4 6 5 4 8 11 12 13 12 14 13 11 9 9 9 8 7
3 3 6 5 5 5 7 7 5 4 5 5 3 4 3 6 7 10 7 4 11 10 9 6 11 14 11 5 11 7 11 9 6 6 6 10 11 12 11 11 11 10 9 8
2 4 1 7 5 2 6 3 4 5 4 1 5 4 3 4 4 9 9 6 8 9 5 10 8 10 11 9 8 7 10 7 4 6 6 6 9 10 11 12 13 12 12 10
2 3 3 10 7 7 6 4 3 2 2 3 5 3 3 6 8 7 9 4 5 7 7 6 7 7 7 6 4 5 4 7 6 8 9 11 16 11 14 14 13 12 12 12
7 3 5 5 5 4 7 7 4 5 2 2 2 5 5 6 8 4 4 5 5 5 6 5 6 7 6 6 6 6 3 6 6 6 12 15 16 13 14 15 14 14 13 12
5 3 2 2 5 3 3 7 8 3 6 5 7 9 4 5 7 5 5 3 5 6 7 8 7 4 2 4 5 3 4 2 3 8 13 18 17 13 13 12 13 13 13 13
3 1 3 8 7 9 5 8 6 4 6 9 13 8 4 3 6 5 5 6 6 6 7 7 5 2 2 2 3 4 2 3 4 6 6 6 7 9 10 12 12 14 15 16
3 4 3 4 5 6 5 7 7 6 7 8 5 6 5 5 6 5 6 6 5 3 3 5 6 5 4 2 3 3 6 4 2 2 7 7 6 6 6 9 12 15 15 12
4 4 3 3 4 2 5 3 16 16 10 9 8 6 5 3 3 10 6 5 6 5 6 7 6 7 7 5 5 4 5 7 7 6 3 4 3 4 6 6 5 8 5 5
4 5 3 3 3 4 5 7 4 3 3 3 6 7 6 5 6 4 8 6 5 6 5 4 5 4 5 7 7 6 6 6 5 8 8 5 3 5 6 6 6 4 4 0
6 6 5 3 3 4 2 6 5 4 1 4 9 6 7 5 3 4 6 4 5 6 5 7 8 4 5 6 6 6 7 6 7 7 8 8 5 4 6 6 4 2 2 5
3 3 5 2 3 1 3 3 2 2 5 2 5 4 3 2 5 5 6 6 4 5 7 7 6 6 7 7 6 6 7 7 7 7 7 7 7 7 6 4 3 4 5 5
4 4 3 2 2 3 2 3 0 5 1 4 3 2 1 3 4 6 7 8 8 9 9 9 7 8 8 7 5 7 7 9 7 7 7 8 7 6 5 6 4 6 5 5
3 5 4 5 5 4 3 4 3 3 3 1 2 3 3 5 6 8 7 8 9 9 8 8 10 10 8 7 6 7 11 7 8 8 12 12 7 7 6 5 6 4 5 6
5 1 3 3 6 6 7 4 4 2 1 4 4 5 5 6 7 7 8 8 8 9 9 9 8 8 8 8 8 8 10 11 8 11 12 10 11 11 8 5 5 5 5 6
4 3 2 3 4 2 4 3 2 3 3 4 6 6 7 7 9 8 7 8 9 10 9 9 7 7 10 10 9 10 11 9 9 10 11 11 10 9 7 6 5 5 6 7
0 3 3 4 5 5 5 6 6 7 6 7 4 7 7 4 8 7 9 10 9 8 8 6 7 8 11 9 9 12 10 7 9 11 10 9 9 8 5 6 5 10 11 10
Wind_Direction
286 86 233 238 199 235 256 29 303 238 200 165 217 238 206 201 201 173 183 178 184 180 190 187 182 174 172 178 176 182 178 178 167 158 175 174 183 179 193 189 202 193 182 177
358 243 249 237 260 231 321 312 294 296 218 127 186 262 243 196 209 182 184 185 186 172 171 187 185 175 176 178 182 179 180 172 177 181 184 152 164 191 188 177 190 194 187 186
203 249 256 239 260 72 313 267 282 233 345 327 161 324 335 217 198 177 195 187 184 181 172 183 186 185 177 177 180 183 182 182 182 171 125 86 66 53 111 165 197 191 188 192
223 261 222 234 234 115 314 206 271 236 63 262 88 280 317 244 193 198 181 187 187 185 182 173 170 178 178 183 182 181 180 182 178 155 167 163 178 165 209 187 189 174 186 178
259 300 286 152 205 131 242 255 67 74 105 50 93 90 264 7 247 226 199 191 191 186 178 183 178 178 180 177 176 178 180 181 176 178 174 177 181 184 189 178 189 188 200 183
245 248 221 211 245 195 254 29 37 36 48 17 14 122 298 203 217 268 220 193 188 183 185 190 180 167 178 179 176 174 174 182 177 182 177 182 190 179 182 189 193 203 203 189
328 272 252 177 92 342 83 53 351 2 2 233 318 64 250 283 321 73 70 59 48 188 179 176 174 169 179 180 179 176 177 186 183 184 185 183 189 190 192 197 195 190 196 185
247 334 161 213 184 184 204 146 158 284 209 264 347 40 3 75 85 69 74 77 60 38 35 3 268 182 178 192 182 179 182 186 191 191 193 191 182 195 205 203 208 203 204 207
41 336 1 159 178 130 257 298 193 136 320 61 328 342 143 39 47 51 63 69 82 60 51 9 318 296 297 202 200 189 184 186 191 196 197 194 188 191 199 201 210 216 202 200
312 28 345 310 11 4 115 198 34 12 86 53 302 322 246 26 37 47 55 77 84 100 110 189 325 327 309 49 165 191 199 209 204 202 197 198 196 197 195 188 203 212 214 204
67 70 300 26 28 330 356 1 25 109 137 151 184 261 226 200 146 93 87 78 101 88 100 96 55 24 13 48 177 161 164 171 181 191 205 236 205 199 196 198 204 206 212 206
7 123 335 244 272 188 108 26 79 108 287 33 135 272 233 59 76 108 64 62 50 68 92 76 58 70 36 17 27 347 5 319 246 216 141 251 235 210 201 209 207 204 207 211
2 26 20 341 359 4 51 360 40 129 80 352 121 248 17 92 77 80 112 123 98 82 60 67 59 60 46 53 16 319 335 319 324 333 338 298 258 223 217 216 213 205 205 209
84 98 143 171 221 238 325 344 9 109 95 207 200 124 65 98 108 109 94 91 75 68 96 93 77 67 36 35 22 63 178 266 292 319 285 265 258 231 220 215 212 213 208 205
104 81 43 198 240 355 292 332 321 288 219 154 177 125 145 134 145 161 172 174 80 29 31 43 60 81 87 30 24 43 127 226 237 243 273 268 249 238 220 222 214 210 210 212
14 209 65 349 346 8 324 320 306 52 73 78 115 104 163 131 80 83 124 102 84 56 31 13 21 89 116 165 57 348 344 194 237 306 310 311 332 266 241 229 214 211 206 208
98 116 74 291 334 350 23 326 64 55 33 134 130 151 142 84 86 99 124 100 101 92 34 354 336 327 317 216 222 307 295 301 321 335 325 322 341 322 326 286 232 225 220 209
131 104 107 222 26 16 225 14 86 81 52 51 79 84 77 122 113 84 55 73 32 9 351 331 322 317 302 298 309 309 332 327 326 318 316 328 296 278 285 296 314 356 268 221
162 118 98 132 170 279 358 2 21 86 27 47 81 48 28 42 89 72 36 26 10 353 325 289 289 286 306 318 308 314 309 310 308 301 301 296 302 315 315 317 307 275 250 248
76 87 119 113 146 231 226 306 348 106 63 4 97 88 85 56 66 284 321 341 342 331 314 308 303 298 320 316 330 334 309 312 295 285 275 280 278 265 291 300 317 254 262 242
46 32 144 160 196 279 224 305 9 97 218 145 99 110 65 80 194 232 283 308 258 252 273 285 288 270 267 284 297 295 289 284 270 283 290 276 264 264 259 266 203 223 236 247
137 133 213 85 127 238 303 29 110 203 140 115 68 76 279 239 271 273 285 277 283 287 288 285 283 276 271 269 257 278 279 267 274 284 284 279 271 250 241 242 244 234 230 208
52 178 175 157 211 230 359 105 61 130 136 178 234 253 217 254 252 266 258 262 259 260 263 267 275 274 266 265 260 265 270 264 265 273 282 275 266 269 256 235 244 229 218 217
320 126 109 78 13 105 88 89 90 74 350 303 287 270 269 264 268 257 259 262 258 262 263 265 264 263 267 261 255 248 260 265 258 272 270 274 279 271 258 229 231 231 234 237
210 32 71 58 344 183 64 61 300 329 313 289 281 266 268 263 272 264 266 270 268 265 263 263 258 265 272 273 262 262 261 251 259 268 266 268 265 265 256 239 221 228 247 235
31 178 123 198 231 162 255 308 336 348 321 306 309 313 305 295 284 283 290 298 293 279 278 272 264 262 269 268 272 277 266 243 255 268 264 256 262 261 240 256 262 219 236 266